Location: Gleizolles
(44.4833°N, 6.7667°E)
Time: 21:22:16
(UTC+00:00)

PCSat - Visible Passes

Search period start: 07 December 2023 00:00
Search period end: 17 December 2023 00:00
Orbit: 784 x 792 km, 67.1° (Epoch: 07 December)

Date Brightness Start Highest point End Pass type
(mag) Time Alt. Az. Time Alt. Az. Time Alt. Az.
07 Dec 12.2 03:03:40 14° NE 03:03:40 14° NE 03:04:21 10° NE visible
07 Dec 10.9 04:44:22 24° NNW 04:44:22 24° NNW 04:47:23 10° NNE visible
08 Dec 11.3 04:14:09 20° N 04:14:09 20° N 04:16:03 10° NNE visible
08 Dec 11.6 05:55:54 10° NNW 05:56:05 10° NNW 05:56:15 10° NNW visible
09 Dec 11.9 03:43:51 14° NNE 03:43:51 14° NNE 03:44:41 10° NNE visible
09 Dec 11.5 05:24:32 12° NNW 05:24:32 12° NNW 05:26:20 10° N visible
10 Dec 11.6 04:54:09 13° NNW 04:54:09 13° NNW 04:55:23 10° N visible
11 Dec 11.8 04:23:43 12° N 04:23:43 12° N 04:24:16 10° N visible
